This is the latest recevied weather packets stored in our database for station/object HS3PIK-2. If no packets are shown the sender has not sent any weather packets the latest 1 day(s).
| Time | Temp. | Humidity | Pressure | Rain* | Wind** | Luminosity | Snow |
|---|---|---|---|---|---|---|---|
| 1778069555 | 29.44° C | 81% | - | - | - | 0 W/m² | - |
| 1778068245 | 30° C | 82% | - | - | - | 0 W/m² | - |
| 1778067918 | 30° C | 82% | - | - | - | 0 W/m² | - |
| 1778067263 | 30.56° C | 81% | - | - | - | 0 W/m² | - |
| 1778066938 | 30.56° C | 80% | - | - | - | 0 W/m² | - |
| 1778066608 | 30.56° C | 80% | - | - | - | 0 W/m² | - |
| 1778065953 | 30.56° C | 80% | - | - | - | 0 W/m² | - |
| 1778064641 | 31.11° C | 77% | - | - | - | 0 W/m² | - |
| 1778064316 | 31.67° C | 77% | - | - | - | 0 W/m² | - |
| 1778063988 | 31.67° C | 78% | - | - | - | 0 W/m² | - |
| 1778062362 | 32.22° C | 77% | - | - | - | 0 W/m² | - |
| 1778061712 | 32.22° C | 78% | - | - | - | 0 W/m² | - |
| 1778061385 | 32.22° C | 77% | - | - | - | 0 W/m² | - |
| 1778061060 | 31.67° C | 77% | - | - | - | 0 W/m² | - |
| 1778060730 | 31.67° C | 76% | - | - | - | 0 W/m² | - |
| 1778060405 | 31.67° C | 78% | - | - | - | 0 W/m² | - |
| 1778060080 | 31.67° C | 77% | - | - | - | 0 W/m² | - |
| 1778059750 | 31.67° C | 75% | - | - | - | 0 W/m² | - |
| 1778059425 | 31.67° C | 75% | - | - | - | 0 W/m² | - |
| 1778059098 | 31.67° C | 75% | - | - | - | 0 W/m² | - |
| 1778058443 | 32.22° C | 75% | - | - | - | 0 W/m² | - |
| 1778058118 | 32.22° C | 76% | - | - | - | 0 W/m² | - |
| 1778057793 | 32.22° C | 75% | - | - | - | 0 W/m² | - |
| 1778057146 | 31.67° C | 75% | - | - | - | 0 W/m² | - |
| 1778056818 | 31.67° C | 76% | - | - | - | 0 W/m² | - |
* Rain since midnight (hover to see other rain measurements)
** Current wind speed in m/s (hover to see current wind gust speed)